Flag Weather past 2 weeks in Port Vila, Vanuatu

Now
84 °F

Partly sunny.


Feels Like: 91 °F
Forecast: 77 / 81 °F
Wind: 14 mph from Southeast

Location: Bauerfield Efate

Current Time: Nov 28, 2014 at 2:37:31 PM

Latest Report: Nov 28, 2014 at 1:00 PM


Visibility: N/A

Pressure: 29.77 "Hg

Humidity: 70%

Dew point: 73 °F

Location of Port VilaLocation

Historic Weather in Port Vila — Graph

°F

Port Vila temperature yesterday

Maximum temperature yesterday: 82 °F (at 12:00 PM)
Minimum temperature yesterday: 68 °F (at 11:00 PM)
Average temperature yesterday: 76 °F

Past Weeks' High & Low Weather Summary

 TemperatureHumidityPressure
High102 °F (Nov 21, 1:00 PM)100% (Nov 13, 9:00 PM)30.04 "Hg (Nov 13, 9:00 PM)
Low64 °F (Nov 14, 5:00 AM)37% (Nov 21, 1:00 PM)29.77 "Hg (Nov 27, 3:00 PM)
Average76 °F85%29.92 "Hg
* Reported Nov 13 1:00 PM — Nov 28 1:00 PM, Port Vila, Weather by CustomWeather, © 2014

Note: Actual official high and low records may vary slightly from our data, if they occured in-between our weather recording intervals... More about our weather records

Advertising

Port Vila weather history for previous 24 hours

 ConditionsComfort  
Time TempWeatherWind HumidityBarometerVisibility
1:00 PM
Nov 28
84 °FPartly sunny.14 mph70%29.77 "HgN/A
11:00 AM84 °FPartly sunny.15 mph74%29.80 "HgN/A
10:00 AM82 °FPartly sunny.12 mph70%29.80 "HgN/A
9:00 AM82 °FPartly sunny.12 mph74%29.80 "HgN/A
8:00 AM81 °FPartly sunny.9 mph74%29.80 "HgN/A
7:00 AM75 °FPassing clouds.2 mph94%29.80 "HgN/A
6:00 AM68 °FPassing clouds.1 mph100%29.80 "HgN/A
5:00 AM66 °FPassing clouds.2 mph100%29.80 "HgN/A
4:00 AM72 °FPassing clouds.No wind88%29.80 "HgN/A
3:00 AM72 °FPassing clouds.No wind88%29.80 "HgN/A
2:00 AM66 °FPassing clouds.1 mph100%29.80 "HgN/A
1:00 AM68 °FPassing clouds.1 mph100%29.80 "HgN/A
12:00 AM68 °FPassing clouds.1 mph100%29.83 "HgN/A
11:00 PM
Nov 27
68 °FPassing clouds.2 mph100%29.83 "HgN/A
10:00 PM72 °FPassing clouds.3 mph88%29.83 "HgN/A
9:00 PM72 °FPassing clouds.2 mph88%29.83 "HgN/A
8:00 PM72 °FPassing clouds.3 mph88%29.83 "HgN/A
7:00 PM73 °FPassing clouds.3 mph89%29.83 "HgN/A
6:00 PM77 °FPartly sunny.7 mph79%29.80 "HgN/A
5:00 PM79 °FPartly sunny.8 mph79%29.80 "HgN/A
4:00 PM81 °FPassing clouds.16 mph79%29.77 "HgN/A
3:00 PM81 °FPassing clouds.14 mph79%29.77 "HgN/A
2:00 PM81 °FBroken clouds.12 mph84%29.80 "HgN/A
Weather by CustomWeather, © 2014

See weather overviewHow to use our weather pages